Tracking 35048 objects as of 19-Aug-2026
HD Live streaming from Space Station
objects crossing your sky now

GALS 2

Track GALS 2 now!
GALS 2 is classified as:


NORAD ID: 23717
Int'l Code: 1995-063A
Launch date: November 17, 1995
Source: Commonwealth of Independent States (former USSR) (CIS)
Launch site: TYURATAM MISSILE AND SPACE COMPLEX (TTMTR)
Your satellite tracking list
Your tracking list is empty




NASA's NSSDC Master Catalog

Two Line Element Set (TLE):
1 23717U 95063A   26230.90739138 -.00000199  00000-0  00000-0 0  9996
2 23717  14.5016   2.1132 0006175 320.1363 249.6868  0.99880077112257
Source of the keplerian elements: AFSPC